COSMOS 2461 (735)

Last updated on Jan. 20, 2021, 6:22 a.m. UTC

1 36401U 10007B   21019.72280025 -.00000048  00000-0  00000+0 0  9993
2 36401  65.9306  20.6353 0019721 359.2113 202.3130  2.13103713 84743
UTC
Height (km)
Latitude
Longitude
Inclination
Orbital Period
UTC large
Height (km)
Speed (km/s)
/
Latitude / Longitude
Inclination (degrees)
Orbital Period (minutes)
Azimuth
Elevation
Range (km)
Doppler Factor
iOS Compass Heading
iOS Angle

Next 30 passes for location: Hong Kong

Rise time Rise Azimuth (degrees) Set time Set Azimuth (degrees) Duration Max altitude (degrees)

No matching passes for this satellites